LROP Weather Reports


time (UTC)temp
C
wind
direction
speed
KPH
gust
KPH
rain 1hr
cm
rain 24hr
cm
rain mn
cm
humidity
%
barometer
mb
20260904160302 27 260 12.9 0.0 0.00 0.00 0.00 39 1015.0
20260904154802 28 270 12.9 0.0 0.00 0.00 0.00 35 1015.0
20260904153303 28 270 12.9 0.0 0.00 0.00 0.00 35 1015.0
20260904151802 30 260 11.3 0.0 0.00 0.00 0.00 31 1015.0
20260904150303 30 260 11.3 0.0 0.00 0.00 0.00 31 1015.0
20260904144802 30 270 14.5 0.0 0.00 0.00 0.00 29 1015.0
20260904143303 30 270 14.5 0.0 0.00 0.00 0.00 29 1015.0
20260904141802 30 250 11.3 0.0 0.00 0.00 0.00 29 1015.0
20260904140312 30 250 11.3 0.0 0.00 0.00 0.00 29 1015.0
20260904134802 30 240 16.1 0.0 0.00 0.00 0.00 31 1015.0
20260904133302 30 240 16.1 0.0 0.00 0.00 0.00 31 1015.0
20260904131802 30 250 17.7 0.0 0.00 0.00 0.00 31 1016.0
20260904130302 30 250 17.7 0.0 0.00 0.00 0.00 31 1016.0
20260904124802 30 280 14.5 0.0 0.00 0.00 0.00 33 1016.0
20260904123302 30 280 14.5 0.0 0.00 0.00 0.00 33 1016.0
20260904121802 30 250 12.9 0.0 0.00 0.00 0.00 35 1016.0
20260904120302 30 250 12.9 0.0 0.00 0.00 0.00 35 1016.0
20260904114802 30 260 16.1 0.0 0.00 0.00 0.00 35 1017.0
20260904113302 30 260 16.1 0.0 0.00 0.00 0.00 35 1017.0
20260904111802 30 240 16.1 0.0 0.00 0.00 0.00 38 1017.0
20260904110415 28 260 14.5 0.0 0.00 0.00 0.00 40 1017.0
20260904104841 28 260 14.5 0.0 0.00 0.00 0.00 40 1017.0
20260904103405 27 310 14.5 0.0 0.00 0.00 0.00 42 1017.0
20260904101811 27 310 14.5 0.0 0.00 0.00 0.00 42 1017.0
20260904100308 27 310 14.5 0.0 0.00 0.00 0.00 42 1017.0
20260904094802 27 260 14.5 0.0 0.00 0.00 0.00 45 1017.0
20260904093302 27 260 14.5 0.0 0.00 0.00 0.00 45 1017.0
20260904091802 26 260 11.3 0.0 0.00 0.00 0.00 51 1018.0
20260904090301 26 260 11.3 0.0 0.00 0.00 0.00 51 1018.0
20260904084802 26 260 11.3 0.0 0.00 0.00 0.00 54 1017.0
20260904083302 26 260 11.3 0.0 0.00 0.00 0.00 54 1017.0
20260904081804 25 260 12.9 0.0 0.00 0.00 0.00 57 1018.0
20260904080303 25 260 12.9 0.0 0.00 0.00 0.00 57 1018.0
20260904074915 23 260 14.5 0.0 0.00 0.00 0.00 61 1018.0
20260904073303 23 260 14.5 0.0 0.00 0.00 0.00 61 1018.0
20260904071801 22 270 16.1 0.0 0.00 0.00 0.00 69 1017.0
20260904070303 22 270 16.1 0.0 0.00 0.00 0.00 69 1017.0
20260904064802 22 260 11.3 0.0 0.00 0.00 0.00 69 1017.0
20260904063302 22 260 11.3 0.0 0.00 0.00 0.00 69 1017.0
20260904061802 17 260 9.7 0.0 0.00 0.00 0.00 94 1017.0
20260904060302 17 260 9.7 0.0 0.00 0.00 0.00 94 1017.0
20260904054802 17 290 9.7 0.0 0.00 0.00 0.00 94 1017.0
20260904053303 17 290 9.7 0.0 0.00 0.00 0.00 94 1017.0
20260904051802 17 260 9.7 0.0 0.00 0.00 0.00 88 1017.0
20260904050302 17 260 9.7 0.0 0.00 0.00 0.00 88 1017.0
20260904044802 17 260 9.7 0.0 0.00 0.00 0.00 94 1017.0
20260904043302 17 260 9.7 0.0 0.00 0.00 0.00 94 1017.0
20260904041802 17 270 8.0 0.0 0.00 0.00 0.00 94 1017.0
20260904040302 17 270 8.0 0.0 0.00 0.00 0.00 94 1017.0
20260904034802 17 270 8.0 0.0 0.00 0.00 0.00 94 1017.0
20260904033302 17 270 8.0 0.0 0.00 0.00 0.00 94 1017.0
20260904031803 17 290 8.0 0.0 0.00 0.00 0.00 94 1017.0
20260904030302 17 290 8.0 0.0 0.00 0.00 0.00 94 1017.0
20260904024803 17 280 8.0 0.0 0.00 0.00 0.00 94 1016.0
20260904023303 17 280 8.0 0.0 0.00 0.00 0.00 94 1016.0
20260904021802 17 290 9.7 0.0 0.00 0.00 0.00 88 1016.0
20260904020302 17 290 9.7 0.0 0.00 0.00 0.00 88 1016.0
20260904014836 17 3.2 0.0 0.00 0.00 0.00 94 1016.0
20260904013302 17 3.2 0.0 0.00 0.00 0.00 94 1016.0
20260904011802 17 10 4.8 0.0 0.00 0.00 0.00 94 1016.0
20260904010302 17 10 4.8 0.0 0.00 0.00 0.00 94 1016.0
20260904004803 17 120 8.0 0.0 0.00 0.00 0.00 94 1016.0
20260904003303 17 120 8.0 0.0 0.00 0.00 0.00 94 1016.0
20260904001802 17 120 8.0 0.0 0.00 0.00 0.00 100 1016.0
20260904000303 17 120 8.0 0.0 0.00 0.00 0.00 100 1016.0
20260903234802 18 1.6 0.0 0.00 0.00 0.00 94 1017.0
20260903233302 18 1.6 0.0 0.00 0.00 0.00 94 1017.0
20260903231827 17 240 11.3 0.0 0.00 0.00 0.00 100 1017.0
20260903230303 17 240 11.3 0.0 0.00 0.00 0.00 100 1017.0
20260903223302 21 310 12.9 0.0 0.00 0.00 0.00 69 1017.0
20260903221802 22 40 11.3 0.0 0.00 0.00 0.00 61 1017.0
20260903220302 22 40 11.3 0.0 0.00 0.00 0.00 61 1017.0
20260903214802 22 360 16.1 0.0 0.00 0.00 0.00 61 1016.0
20260903213311 22 360 16.1 0.0 0.00 0.00 0.00 61 1016.0
20260903211806 22 360 16.1 0.0 0.00 0.00 0.00 57 1017.0
20260903210303 22 360 16.1 0.0 0.00 0.00 0.00 57 1017.0
20260903204911 22 360 9.7 0.0 0.00 0.00 0.00 61 1016.0
20260903203302 22 360 9.7 0.0 0.00 0.00 0.00 61 1016.0
20260903201802 22 10 8.0 0.0 0.00 0.00 0.00 61 1016.0
20260903200302 22 10 8.0 0.0 0.00 0.00 0.00 61 1016.0
20260903194803 22 3.2 0.0 0.00 0.00 0.00 61 1016.0
20260903193303 22 3.2 0.0 0.00 0.00 0.00 61 1016.0
20260903191802 22 0 0.0 0.0 0.00 0.00 0.00 57 1016.0
20260903190303 22 0 0.0 0.0 0.00 0.00 0.00 57 1016.0
20260903184802 22 100 4.8 0.0 0.00 0.00 0.00 57 1016.0
20260903183303 22 100 4.8 0.0 0.00 0.00 0.00 57 1016.0
20260903181802 22 100 8.0 0.0 0.00 0.00 0.00 57 1016.0
20260903180302 22 100 8.0 0.0 0.00 0.00 0.00 57 1016.0
20260903174802 22 90 9.7 0.0 0.00 0.00 0.00 50 1016.0
20260903173303 22 90 9.7 0.0 0.00 0.00 0.00 50 1016.0
20260903171803 26 80 9.7 0.0 0.00 0.00 0.00 39 1016.0
20260903170302 26 80 9.7 0.0 0.00 0.00 0.00 39 1016.0
20260903164802 27 90 9.7 0.0 0.00 0.00 0.00 39 1015.0
20260903163302 27 90 9.7 0.0 0.00 0.00 0.00 39 1015.0
20260903161802 27 100 9.7 0.0 0.00 0.00 0.00 42 1015.0